Home   Weather   Eureka   Past weeks

Flag for Canada Past Weather in Eureka, Nunavut, Canada — Yesterday and Last 2 Weeks

Now
-11 °F

Mostly cloudy.


Feels Like: -26 °F
Forecast: N/A
Wind: 7 mph from Southeast

Location: Eureka

Current Time: Apr 27, 2017 at 4:15:02 pm

Latest Report: Apr 27, 2017 at 3:00 pm


Visibility: 15 mi

Pressure: 29.88 "Hg

Humidity: 76%

Dew Point: -17 °F

Location of EurekaLocation

Past Weather in Eureka — Graph

°F

Eureka Temperature Yesterday

Maximum temperature yesterday: -13 °F (at 9:00 am)
Minimum temperature yesterday: -18 °F (at 10:00 pm)
Average temperature yesterday: -15 °F

High & Low Weather Summary for the Past Weeks

 TemperatureHumidityPressure
High3 °F (Apr 14, 10:00 pm)85% (Apr 14, 7:00 pm)30.58 "Hg (Apr 14, 7:00 pm)
Low-29 °F (Apr 13, 4:28 am)60% (Apr 18, 2:00 pm)29.72 "Hg (Apr 18, 11:00 am)
Average-12 °F74%30.28 "Hg
* Reported Apr 12 3:00 pm — Apr 27 3:00 pm, Eureka, Weather by CustomWeather, © 2017

Note: Actual official high and low records may vary slightly from our data, if they occured in-between our weather recording intervals... More about our weather records

Advertising

Eureka Weather History for the Previous 24 Hours

Scroll right to see more
 ConditionsComfort  
Time TempWeatherWind HumidityBarometerVisibility
3:00 pm
Thu, Apr 27
-11 °FMostly cloudy.7 mph76%29.88 "Hg15 mi
2:00 pm-11 °FMostly cloudy.5 mph76%29.86 "Hg15 mi
1:00 pm-13 °FMostly cloudy.3 mph76%29.86 "Hg15 mi
12:00 pm-13 °FMostly cloudy.2 mph76%29.86 "Hg15 mi
11:00 am-13 °FLight snow. Mostly cloudy.2 mph76%29.86 "Hg15 mi
10:00 am-17 °FLight snow. Overcast.3 mph76%29.87 "Hg15 mi
9:00 am-17 °FPartly sunny.2 mph76%29.87 "Hg15 mi
8:00 am-18 °FPartly sunny.No wind75%29.88 "Hg15 mi
7:00 am-20 °FPartly sunny.2 mph75%29.88 "Hg15 mi
6:00 am-20 °FPartly sunny.No wind68%29.89 "Hg15 mi
5:24 am-20 °FPartly sunny.2 mph68%29.89 "Hg15 mi
5:00 am-20 °FSnow flurries. Partly sunny.2 mph75%29.88 "Hg15 mi
4:00 am-20 °FSnow flurries. Passing clouds.3 mph75%29.89 "Hg15 mi
3:00 am-22 °FSnow flurries. Partly sunny.2 mph75%29.90 "Hg15 mi
2:00 am-20 °FSnow flurries. Passing clouds.5 mph75%29.90 "Hg15 mi
1:00 am-20 °FSnow flurries. Passing clouds.No wind75%29.90 "Hg15 mi
10:00 pm
Wed, Apr 26
-18 °FSnow flurries. Passing clouds.3 mph75%29.91 "Hg15 mi
9:00 pm-17 °FSnow flurries. Passing clouds.3 mph76%29.91 "Hg10 mi
8:00 pm-15 °FSnow flurries. Passing clouds.5 mph76%29.92 "Hg15 mi
7:00 pm-15 °FSnow flurries. Passing clouds.7 mph76%29.93 "Hg15 mi
6:00 pm-13 °FSnow flurries. Passing clouds.3 mph76%29.93 "Hg15 mi
5:33 pm-13 °FSnow flurries. Passing clouds.6 mph76%29.93 "Hg15 mi
5:00 pm-13 °FPassing clouds.7 mph76%29.93 "Hg15 mi
4:00 pm-13 °FPassing clouds.5 mph76%29.94 "Hg15 mi
Weather by CustomWeather, © 2017

See weather overviewHow to use our weather pages